#datint,netname,site,siteID,timestamp,IntT,BattV,AirT2,AirT,AirT_Avg,AirT_Max,AirT_Min,RH_Avg,RH_Max,RH_Min,EA_Avg,Td_Avg,Td_Max,Td_Min,WindS_Smp,WindS_Avg,WindD_Avg,WindD_SD,WindS_Max,ETo,ETr,SoilT4,SoilT8,SoilVWC8,SolarW_Avg,wetstate_Avg,wetT_Avg,Precip_accum,Precip_WPG,Precip_TB
15min,AgWx,beryljct,423,15MAR2020:00:00:00,42.5,12.92,42.5,42.4,42.2,42.4,41.9,78,79,77,0.713,35.8,36.0,35.6,8.9,11.7,172,8.1,16.9,0.00014,0.00017,43.0,42.9,25,0,.,.,10.33,0.00,0.00
15min,AgWx,beryljct,423,15MAR2020:00:15:00,42.3,12.91,42.3,41.8,42.0,42.4,41.7,79,79,77,0.713,35.8,36.0,35.7,8.81,8.6,191,8.7,12.0,0.00010,0.00013,42.9,42.9,25,0,.,.,10.33,0.00,0.00
15min,AgWx,beryljct,423,15MAR2020:00:30:00,42.0,12.91,41.0,41.0,41.5,42.0,41.0,79,81,78,0.703,35.6,35.9,35.4,5.546,6.6,180,11,9.5,0.00007,0.00009,42.8,42.9,25,0,.,.,10.33,0.00,0.00
15min,AgWx,beryljct,423,15MAR2020:00:45:00,41.6,12.91,41.3,41.0,41.1,41.3,40.8,80,81,80,0.698,35.5,35.6,35.3,5.765,7.0,170,8.5,9.5,0.00007,0.00009,42.7,42.9,25,0,.,.,10.33,0.00,0.00
15min,AgWx,beryljct,423,15MAR2020:01:00:00,41.1,12.89,40.9,40.6,40.5,41.1,40.2,81,82,80,0.699,35.2,35.5,34.8,9.4,7.2,169,13,9.4,0.00006,0.00008,42.6,42.9,25,0,.,.,10.33,0.01,0.00
15min,AgWx,beryljct,423,15MAR2020:01:15:00,41.0,12.89,41.4,41.4,40.8,41.4,40.4,81,82,81,0.713,35.6,36.0,35.2,7.125,8.3,157,7.6,10.6,0.00007,0.00010,42.5,42.9,25,0,.,.,10.33,0.00,0.00
15min,AgWx,beryljct,423,15MAR2020:01:30:00,41.1,12.89,40.5,40.8,41.0,41.3,40.7,82,84,81,0.722,36.0,36.3,35.6,5.7,7.1,176,19,11.8,0.00006,0.00008,42.4,42.9,25,0,.,.,10.33,0.00,0.00
15min,AgWx,beryljct,423,15MAR2020:01:45:00,40.9,12.88,40.6,40.7,40.8,41.4,40.3,84,85,82,0.710,36.2,36.7,35.7,4.341,5.5,180,12,8.1,0.00002,0.00004,42.3,42.8,25,0,.,.,10.33,0.00,0.00
15min,AgWx,beryljct,423,15MAR2020:02:00:00,40.5,12.87,39.9,39.3,39.1,40.7,38.4,86,89,83,0.718,35.4,36.1,35.0,5.502,5.6,140,6.5,6.9,0.00001,0.00002,42.2,42.8,25,0,.,.,10.34,0.00,0.00
15min,AgWx,beryljct,423,15MAR2020:02:15:00,40.0,12.85,40.4,39.4,39.3,39.6,39.0,87,88,86,0.709,35.7,36.1,35.4,6.379,5.5,143,7.5,6.7,0.00000,0.00001,42.1,42.8,25,0,.,.,10.33,0.00,0.00
15min,AgWx,beryljct,423,15MAR2020:02:30:00,39.9,12.85,39.9,39.8,39.6,40.0,39.4,87,87,86,0.727,36.0,36.5,35.6,7.76,6.7,134,8.8,9.4,0.00002,0.00003,42.0,42.8,25,0,.,.,10.34,0.00,0.00
15min,AgWx,beryljct,423,15MAR2020:02:45:00,39.6,12.83,39.3,39.0,39.1,40.0,38.6,88,90,86,0.724,35.9,36.5,35.4,4.932,5.5,121,9.4,10.7,-0.00000,0.00001,41.9,42.8,25,0,.,.,10.34,0.00,0.00
15min,AgWx,beryljct,423,15MAR2020:03:00:00,39.2,12.83,38.6,38.5,38.8,39.1,38.4,90,91,89,0.716,36.1,36.5,35.8,2.455,3.9,133,8.6,5.3,-0.00004,-0.00004,41.8,42.7,25,0,.,.,10.34,0.00,0.00
15min,AgWx,beryljct,423,15MAR2020:03:15:00,38.9,12.82,38.5,38.3,38.3,38.6,38.1,91,92,91,0.716,35.9,36.2,35.7,3.683,2.9,124,12,4.3,-0.00006,-0.00007,41.7,42.7,25,0,.,.,10.34,0.00,0.00
15min,AgWx,beryljct,423,15MAR2020:03:30:00,38.7,12.81,39.1,38.8,38.5,38.8,38.2,92,92,91,0.733,36.3,36.7,35.9,5.546,3.7,115,9.6,5.5,-0.00005,-0.00005,41.6,42.7,25,0,.,.,10.34,0.00,0.00
15min,AgWx,beryljct,423,15MAR2020:03:45:00,38.7,12.81,37.8,38.2,38.8,39.1,38.2,91,92,91,0.709,36.4,36.9,35.7,3.464,4.7,130,5.7,6.4,-0.00003,-0.00003,41.5,42.7,25,0,.,.,10.34,0.00,0.00
15min,AgWx,beryljct,423,15MAR2020:04:00:00,38.4,12.8,39.5,39.0,38.3,39.0,37.9,92,92,91,0.735,36.0,36.7,35.5,5.656,5.2,138,14,8.5,-0.00002,-0.00002,41.4,42.6,25,0,.,.,10.34,0.00,0.00
15min,AgWx,beryljct,423,15MAR2020:04:15:00,38.4,12.79,40.3,40.0,39.6,40.1,39.0,90,91,89,0.748,36.9,37.3,36.6,7.081,5.6,172,11,9.6,-0.00001,-0.00001,41.3,42.6,24,0,.,.,10.34,0.00,0.00
15min,AgWx,beryljct,423,15MAR2020:04:30:00,38.5,12.79,40.2,39.6,39.7,40.1,39.4,89,90,89,0.740,36.9,37.2,36.5,2.653,2.4,136,46,7.9,-0.00006,-0.00008,41.2,42.6,24,0,.,.,10.34,0.00,0.00
15min,AgWx,beryljct,423,15MAR2020:04:45:00,38.4,12.78,40.7,39.9,39.5,40.1,38.7,90,91,88,0.741,36.6,37.5,35.8,6.73,4.7,282,48,6.8,-0.00002,-0.00002,41.2,42.6,24,0,.,.,10.33,0.00,0.00
15min,AgWx,beryljct,423,15MAR2020:05:00:00,38.4,12.76,38.8,39.1,39.7,40.1,39.1,89,90,88,0.724,36.8,37.1,36.2,1.776,3.3,206,14,6.8,-0.00004,-0.00005,41.1,42.5,25,0,.,.,10.34,0.01,0.00
15min,AgWx,beryljct,423,15MAR2020:05:15:00,38.3,12.77,40.6,40.3,39.5,40.3,38.9,90,91,89,0.762,36.8,37.6,36.0,7.892,4.2,234,17,11.2,-0.00003,-0.00003,41.0,42.5,25,0,.,.,10.34,0.00,0.00
15min,AgWx,beryljct,423,15MAR2020:05:30:00,38.8,12.76,40.8,40.4,40.4,40.7,39.9,89,90,88,0.749,37.2,37.6,36.7,2.148,4.0,188,16,8.8,-0.00003,-0.00002,40.9,42.5,24,0,.,.,10.34,0.00,0.00
15min,AgWx,beryljct,423,15MAR2020:05:45:00,38.9,12.76,39.8,39.8,40.1,40.6,39.7,88,89,87,0.730,36.8,37.4,36.3,6.357,4.6,187,7.3,9.2,-0.00002,-0.00001,40.8,42.5,24,0,.,.,10.34,0.00,0.00
15min,AgWx,beryljct,423,15MAR2020:06:00:00,39.0,12.75,40.6,40.2,39.9,40.3,39.4,88,88,87,0.733,36.5,36.8,35.9,9.21,7.6,191,7.1,11.1,0.00002,0.00004,40.7,42.4,24,0,.,.,10.34,0.00,0.00
15min,AgWx,beryljct,423,15MAR2020:06:15:00,39.3,12.75,40.7,40.6,40.5,40.8,40.2,86,87,86,0.741,36.7,36.9,36.5,8.26,9.8,194,7.2,14.1,0.00005,0.00007,40.6,42.4,24,0,.,.,10.34,0.00,0.00
15min,AgWx,beryljct,423,15MAR2020:06:30:00,39.8,12.75,41.5,41.0,40.7,41.0,40.6,86,87,86,0.753,37.0,37.3,36.8,11.62,9.8,193,6.2,12.4,0.00005,0.00007,40.5,42.3,24,0,.,.,10.34,0.00,0.00
15min,AgWx,beryljct,423,15MAR2020:06:45:00,40.4,12.74,41.2,41.1,41.4,41.5,41.0,86,88,85,0.770,37.6,37.9,37.2,11.51,12.6,190,6.5,16.1,0.00007,0.00009,40.5,42.3,24,0,.,.,10.34,0.00,0.00
15min,AgWx,beryljct,423,15MAR2020:07:00:00,40.6,12.74,40.7,40.6,40.8,41.1,40.6,88,89,88,0.761,37.6,37.9,37.4,12.17,12.2,184,6.8,15.9,0.00020,0.00035,40.4,42.3,24,0,.,.,10.35,0.00,0.00
15min,AgWx,beryljct,423,15MAR2020:07:15:00,40.4,12.74,40.3,39.8,40.2,40.7,39.8,90,90,89,0.748,37.4,37.7,37.1,12.32,11.8,182,7.0,17.9,0.00018,0.00031,40.3,42.2,24,0,.,.,10.34,0.00,0.00
15min,AgWx,beryljct,423,15MAR2020:07:30:00,40.1,12.74,39.8,39.7,39.9,40.1,39.7,89,90,89,0.740,37.0,37.3,36.7,9.93,10.9,181,6.9,13.9,0.00017,0.00030,40.3,42.2,24,0,.,.,10.35,0.00,0.00
15min,AgWx,beryljct,423,15MAR2020:07:45:00,39.6,12.71,39.2,39.0,39.2,39.7,38.9,90,90,89,0.727,36.5,36.8,36.1,8.57,8.8,178,7.2,11.4,0.00015,0.00025,40.3,42.2,24,2,.,.,10.35,0.00,0.00
15min,AgWx,beryljct,423,15MAR2020:08:00:00,39.1,12.73,39.3,39.0,39.0,39.2,38.9,89,90,89,0.718,36.2,36.4,36.0,9.4,9.1,181,8.8,12.1,0.00018,0.00029,40.3,42.1,24,8,.,.,10.35,0.00,0.00
15min,AgWx,beryljct,423,15MAR2020:08:15:00,38.9,12.77,38.9,38.8,39.0,39.2,38.8,89,90,89,0.711,36.1,36.3,35.8,5.809,7.4,182,6.0,10.7,0.00024,0.00035,40.2,42.1,24,30,.,.,10.34,0.00,0.00
15min,AgWx,beryljct,423,15MAR2020:08:30:00,38.9,12.82,40.0,39.5,39.2,39.5,38.8,89,90,89,0.730,36.2,36.5,35.9,10.35,7.9,183,6.2,10.4,0.00038,0.00050,40.2,42.0,24,67,.,.,10.35,0.00,0.00
15min,AgWx,beryljct,423,15MAR2020:08:45:00,39.2,12.91,41.3,40.7,40.0,40.7,39.4,88,89,87,0.746,36.7,37.1,36.3,13.68,10.2,185,6.9,14.3,0.00045,0.00060,40.2,42.0,24,78,.,.,10.35,0.00,0.00
15min,AgWx,beryljct,423,15MAR2020:09:00:00,40.2,13.04,42.1,41.8,41.5,41.8,40.7,85,87,84,0.758,37.3,37.4,37.0,10.9,11.5,181,6.4,14.9,0.00066,0.00088,40.1,42.0,24,131,.,.,10.34,0.00,0.00
15min,AgWx,beryljct,423,15MAR2020:09:15:00,41.5,13.18,42.9,42.9,42.6,43.1,41.8,82,84,81,0.764,37.6,37.7,37.4,13.22,13.5,181,8.6,16.7,0.00088,0.00116,40.1,42.0,24,184,.,.,10.34,0.00,0.00
15min,AgWx,beryljct,423,15MAR2020:09:30:00,42.1,13.12,42.1,42.1,42.4,42.8,42.1,82,83,81,0.744,37.2,37.7,36.8,10.76,13.2,174,7.8,19.1,0.00058,0.00085,40.1,41.9,24,69,.,.,10.34,0.00,0.00
15min,AgWx,beryljct,423,15MAR2020:09:45:00,42.5,13.49,44.0,44.0,42.8,44.0,42.0,81,82,79,0.768,37.4,38.2,36.9,14.14,14.8,171,7.6,21.0,0.00098,0.00130,40.1,41.9,24,200,.,.,10.35,0.00,0.00
15min,AgWx,beryljct,423,15MAR2020:10:00:00,44.0,13.8,44.4,44.4,44.4,45.0,43.6,78,79,75,0.767,37.8,38.6,37.2,21,17.7,169,9.7,24.9,0.00138,0.00182,40.1,41.9,24,315,.,.,10.35,0.00,0.00
15min,AgWx,beryljct,423,15MAR2020:10:15:00,45.1,14.53,45.3,45.1,44.5,45.3,43.8,77,79,75,0.797,37.8,39.0,37.0,16.31,17.0,171,8.5,21.8,0.00149,0.00194,40.1,41.8,24,343,.,.,10.34,0.00,0.00
15min,AgWx,beryljct,423,15MAR2020:10:30:00,45.9,14.5,45.7,45.7,45.0,45.7,44.3,75,78,74,0.777,37.6,38.6,36.8,19.93,18.2,172,9.9,23.0,0.00156,0.00206,40.1,41.8,24,348,.,.,10.34,0.00,0.00
15min,AgWx,beryljct,423,15MAR2020:10:45:00,46.8,14.5,46.3,46.2,45.7,46.2,45.2,74,76,72,0.793,37.8,38.8,37.0,18.59,17.6,175,8.6,24.7,0.00167,0.00220,40.2,41.8,24,356,.,.,10.34,0.00,0.00
15min,AgWx,beryljct,423,15MAR2020:11:00:00,48.0,14.5,46.4,46.6,46.6,47.1,46.0,71,74,69,0.762,37.8,38.6,36.9,16.66,19.0,178,11,27.6,0.00210,0.00273,40.3,41.7,24,490,.,.,10.34,0.00,0.00
15min,AgWx,beryljct,423,15MAR2020:11:15:00,48.9,14.46,46.8,46.9,47.1,47.8,46.3,69,72,67,0.753,37.6,38.9,36.5,20.54,17.0,176,9.0,22.1,0.00195,0.00258,40.4,41.7,24,393,.,.,10.34,0.00,0.00
15min,AgWx,beryljct,423,15MAR2020:11:30:00,48.9,13.59,46.4,46.3,46.4,46.8,46.1,68,70,67,0.732,36.5,37.5,36.0,23.52,18.4,174,8.7,24.8,0.00153,0.00217,40.5,41.7,24,230,.,.,10.34,0.00,0.00
15min,AgWx,beryljct,423,15MAR2020:11:45:00,48.6,14.14,47.4,47.1,46.4,47.1,46.1,69,70,68,0.761,36.8,37.5,36.2,15.28,17.5,180,8.8,22.8,0.00163,0.00225,40.6,41.7,24,278,.,.,10.34,0.00,0.00
15min,AgWx,beryljct,423,15MAR2020:12:00:00,48.7,14.48,47.2,46.7,46.8,47.3,46.5,67,69,65,0.730,36.5,37.6,35.6,19.6,19.3,180,9.1,25.6,0.00174,0.00243,40.8,41.7,24,295,.,.,10.33,0.00,0.00
15min,AgWx,beryljct,423,15MAR2020:12:15:00,49.0,14.45,47.4,47.4,47.2,48.1,46.7,66,68,64,0.731,36.6,37.3,36.2,14.29,18.9,184,11,23.9,0.00194,0.00265,40.9,41.7,24,353,.,.,10.34,0.00,0.00
15min,AgWx,beryljct,423,15MAR2020:12:30:00,49.3,14.47,47.2,47.1,47.5,48.1,47.1,65,67,63,0.733,36.5,37.1,35.7,17.38,18.1,187,11,25.3,0.00193,0.00266,41.1,41.6,24,333,.,.,10.33,0.00,0.00
15min,AgWx,beryljct,423,15MAR2020:12:45:00,49.5,14.1,47.4,47.3,47.4,47.7,47.1,66,68,64,0.718,36.7,37.6,36.1,17.76,18.3,182,11,26.8,0.00179,0.00249,41.2,41.7,24,294,.,.,10.33,0.00,0.00
15min,AgWx,beryljct,423,15MAR2020:13:00:00,49.8,14.06,49.8,49.6,48.3,49.7,47.2,65,67,64,0.773,37.3,38.6,36.1,20.06,19.3,188,7.9,24.8,0.00255,0.00334,41.3,41.6,24,549,.,.,10.33,0.00,0.00
15min,AgWx,beryljct,423,15MAR2020:13:15:00,51.1,14.01,50.8,50.1,49.5,50.4,48.7,62,65,59,0.743,37.1,38.1,36.2,23.06,22.3,187,11,27.9,0.00326,0.00423,41.5,41.7,24,773,.,.,10.32,0.00,0.00
15min,AgWx,beryljct,423,15MAR2020:13:30:00,52.3,13.99,49.5,49.3,50.2,50.8,49.3,61,63,59,0.734,37.2,38.4,36.5,16.27,21.6,182,9.1,29.2,0.00349,0.00451,41.6,41.6,24,808,.,.,10.33,0.00,0.00
15min,AgWx,beryljct,423,15MAR2020:13:45:00,52.7,13.97,49.3,49.3,49.7,50.1,49.3,62,64,60,0.730,37.1,38.1,36.1,18.7,18.8,181,9.6,24.3,0.00245,0.00332,41.8,41.7,24,446,.,.,10.33,0.00,0.00
15min,AgWx,beryljct,423,15MAR2020:14:00:00,52.7,14,51.2,50.3,49.7,50.5,49.2,59,62,56,0.690,36.2,37.6,35.0,23.35,18.0,180,11,26.1,0.00268,0.00359,42.0,41.7,24,520,.,.,10.33,0.00,0.00
15min,AgWx,beryljct,423,15MAR2020:14:15:00,53.4,13.99,50.6,50.0,50.8,51.9,50.0,57,59,55,0.716,36.0,37.7,34.7,9.34,16.4,188,13,24.1,0.00317,0.00413,42.2,41.7,24,622,.,.,10.32,0.00,0.00
15min,AgWx,beryljct,423,15MAR2020:14:30:00,54.0,13.97,52.3,51.9,51.2,52.2,50.1,56,60,53,0.717,36.3,37.4,35.0,16.62,18.1,192,13,24.6,0.00374,0.00479,42.4,41.7,24,810,.,.,10.32,0.00,0.00
15min,AgWx,beryljct,423,15MAR2020:14:45:00,54.6,13.95,50.7,50.6,51.3,52.2,50.6,56,58,53,0.703,36.1,37.9,34.6,14.34,16.9,189,12,22.1,0.00273,0.00371,42.6,41.7,24,483,.,.,10.32,0.00,0.00
15min,AgWx,beryljct,423,15MAR2020:15:00:00,54.3,13.97,51.1,51.6,51.2,51.8,50.6,56,59,52,0.739,35.9,37.6,34.3,19.03,14.8,193,10,20.7,0.00233,0.00322,42.8,41.7,24,348,.,.,10.32,0.00,0.00
15min,AgWx,beryljct,423,15MAR2020:15:15:00,54.3,13.96,51.3,51.1,51.5,52.0,51.1,54,56,52,0.704,35.4,36.5,34.6,17.63,17.6,193,10,25.3,0.00266,0.00369,43.0,41.8,24,437,.,.,10.32,0.00,0.00
15min,AgWx,beryljct,423,15MAR2020:15:30:00,54.0,13.95,51.9,51.4,51.1,51.4,50.8,55,56,53,0.721,35.6,36.2,34.8,14.91,15.6,190,13,20.8,0.00221,0.00313,43.2,41.8,24,325,.,.,10.32,0.00,0.00
15min,AgWx,beryljct,423,15MAR2020:15:45:00,54.1,13.97,52.0,52.0,51.9,52.5,51.3,55,57,54,0.711,36.4,37.4,35.4,13.9,13.0,196,11,19.0,0.00233,0.00318,43.4,41.8,24,365,.,.,10.32,0.00,0.00
15min,AgWx,beryljct,423,15MAR2020:16:00:00,54.8,13.93,53.5,53.0,52.6,53.3,51.7,53,56,51,0.723,36.2,37.2,35.3,13.94,16.3,209,8.8,22.6,0.00335,0.00442,43.6,41.9,24,653,.,.,10.32,0.00,0.00
15min,AgWx,beryljct,423,15MAR2020:16:15:00,55.7,13.89,53.0,53.2,52.9,53.6,52.3,53,55,51,0.755,36.1,37.5,35.0,13.55,16.6,198,12,24.6,0.00347,0.00457,43.7,41.9,24,670,.,.,10.32,0.00,0.00
15min,AgWx,beryljct,423,15MAR2020:16:30:00,56.2,13.87,52.7,53.0,53.0,53.3,52.6,55,57,53,0.759,37.1,38.5,35.9,14.56,15.5,190,12,20.1,0.00314,0.00415,43.9,41.9,24,595,.,.,10.31,0.00,0.00
15min,AgWx,beryljct,423,15MAR2020:16:45:00,56.6,13.88,53.5,53.1,52.8,53.5,52.3,52,56,48,0.669,35.7,38.1,33.5,15.74,15.6,190,12,22.5,0.00322,0.00428,44.0,42.0,24,601,.,.,10.31,0.00,0.00
15min,AgWx,beryljct,423,15MAR2020:17:00:00,56.8,13.79,52.1,52.6,52.9,53.5,52.2,50,51,48,0.679,34.8,35.9,33.6,16.53,15.6,194,9.2,21.4,0.00275,0.00384,44.2,42.0,24,463,.,.,10.32,0.00,0.00
15min,AgWx,beryljct,423,15MAR2020:17:15:00,55.7,13.84,51.0,51.3,51.5,52.4,50.9,52,54,49,0.670,34.3,35.5,33.4,14.29,14.6,197,9.6,20.7,0.00172,0.00265,44.4,42.1,24,198,.,.,10.31,0.00,0.00
15min,AgWx,beryljct,423,15MAR2020:17:30:00,54.2,13.96,51.3,51.0,50.7,51.2,50.5,53,55,51,0.681,34.4,35.4,33.6,14.05,14.6,197,8.8,18.9,0.00150,0.00239,44.5,42.1,24,166,.,.,10.32,0.00,0.00
15min,AgWx,beryljct,423,15MAR2020:17:45:00,54.1,13.95,52.2,51.8,51.9,52.3,51.1,53,54,52,0.708,35.5,36.1,34.5,21.35,15.2,186,9.6,21.4,0.00229,0.00324,44.7,42.2,24,386,.,.,10.31,0.00,0.00
15min,AgWx,beryljct,423,15MAR2020:18:00:00,54.4,13.94,52.4,51.8,51.9,52.2,51.7,54,55,53,0.718,35.8,36.6,35.1,12.47,16.7,187,6.9,23.6,0.00215,0.00314,44.8,42.3,24,342,.,.,10.31,0.00,0.00
15min,AgWx,beryljct,423,15MAR2020:18:15:00,54.5,13.93,52.3,51.8,51.8,52.0,51.7,55,56,54,0.733,36.0,36.6,35.5,11.84,16.2,194,9.5,22.0,0.00192,0.00287,44.8,42.3,24,290,.,.,10.31,0.00,0.00
15min,AgWx,beryljct,423,15MAR2020:18:30:00,54.1,13.95,51.1,51.0,51.3,51.9,50.8,56,58,55,0.725,36.3,36.9,35.8,14.38,15.7,186,8.9,23.6,0.00146,0.00234,44.9,42.4,24,189,.,.,10.31,0.00,0.00
15min,AgWx,beryljct,423,15MAR2020:18:45:00,53.2,13.3,50.2,50.2,50.6,51.0,50.1,58,59,57,0.722,36.4,36.9,36.0,12.21,12.2,185,8.2,15.9,0.00045,0.00053,44.9,42.4,24,91,.,.,10.32,0.00,0.00
15min,AgWx,beryljct,423,15MAR2020:19:00:00,52.1,13.97,50.3,50.0,50.1,50.3,49.8,60,61,58,0.741,36.6,37.2,36.0,10.65,8.1,191,11,12.5,0.00037,0.00046,44.9,42.5,24,100,.,.,10.32,0.00,0.00
15min,AgWx,beryljct,423,15MAR2020:19:15:00,51.5,13.32,48.7,49.2,49.9,50.2,49.2,60,62,59,0.742,36.7,36.9,36.3,7.717,10.3,192,7.8,16.2,0.00038,0.00046,45.0,42.6,24,83,.,.,10.32,0.00,0.00
15min,AgWx,beryljct,423,15MAR2020:19:30:00,50.6,13.15,47.6,48.1,48.6,49.1,48.1,64,66,62,0.751,36.9,37.3,36.7,7.563,10.5,201,7.7,16.2,0.00026,0.00033,44.9,42.6,24,22,.,.,10.32,0.00,0.00
15min,AgWx,beryljct,423,15MAR2020:19:45:00,49.4,13.1,46.8,46.8,47.5,48.2,46.8,68,70,66,0.765,37.4,37.7,37.1,7.41,8.4,193,9.1,15.5,0.00016,0.00021,44.9,42.6,24,8,.,.,10.32,0.00,0.00
15min,AgWx,beryljct,423,15MAR2020:20:00:00,47.9,13.07,45.9,45.7,46.0,46.8,45.5,72,74,70,0.763,37.6,37.8,37.5,8.02,7.3,188,6.9,11.2,0.00008,0.00012,44.8,42.7,24,2,.,.,10.32,0.00,0.00
15min,AgWx,beryljct,423,15MAR2020:20:15:00,46.8,13.04,44.7,44.7,45.5,45.9,44.7,74,76,73,0.758,37.6,37.8,37.4,6.445,7.9,187,8.2,10.7,0.00008,0.00012,44.8,42.8,24,0,.,.,10.33,0.00,0.00
15min,AgWx,beryljct,423,15MAR2020:20:30:00,45.7,13.03,44.3,44.2,44.3,44.7,44.1,76,78,76,0.752,37.4,37.7,37.2,3.595,5.1,187,7.4,7.8,-0.00001,0.00001,44.7,42.8,24,0,.,.,10.33,0.00,0.00
15min,AgWx,beryljct,423,15MAR2020:20:45:00,44.7,13.01,44.6,43.8,44.2,44.6,43.8,76,77,75,0.745,37.2,37.6,36.8,3.464,3.1,181,12,6.9,-0.00008,-0.00008,44.6,42.9,24,0,.,.,10.33,0.00,0.00
15min,AgWx,beryljct,423,15MAR2020:21:00:00,43.8,13,43.4,43.5,43.9,44.3,43.5,76,77,75,0.724,36.8,37.2,36.2,2.061,2.6,200,7.6,3.7,-0.00010,-0.00012,44.5,42.9,24,0,.,.,10.33,0.00,0.00
15min,AgWx,beryljct,423,15MAR2020:21:15:00,43.1,12.99,43.4,43.3,43.5,43.8,43.3,74,76,73,0.703,35.9,36.5,35.4,1.776,3.2,179,14,5.8,-0.00007,-0.00007,44.4,42.9,24,0,.,.,10.33,0.00,0.00
15min,AgWx,beryljct,423,15MAR2020:21:30:00,42.5,12.99,41.9,41.4,42.6,43.4,41.0,75,79,73,0.696,35.2,35.9,33.6,0,1.7,148,21,3.9,-0.00015,-0.00019,44.2,43.0,24,0,.,.,10.33,0.00,0.00
15min,AgWx,beryljct,423,15MAR2020:21:45:00,41.9,12.97,44.0,43.5,42.8,43.5,41.4,76,79,74,0.709,35.6,36.1,35.0,0.417,0.3,141,12,3.5,-0.00026,-0.00040,44.1,43.0,24,0,.,.,10.34,0.00,0.00
15min,AgWx,beryljct,423,15MAR2020:22:00:00,41.7,12.96,43.6,43.6,44.1,44.4,43.6,72,74,71,0.693,35.5,36.0,34.9,2.477,0.8,204,25,3.0,-0.00022,-0.00032,43.9,43.0,24,0,.,.,10.34,0.00,0.00
15min,AgWx,beryljct,423,15MAR2020:22:15:00,42.0,12.96,43.1,43.2,43.6,44.5,43.1,73,75,71,0.710,35.6,35.8,35.1,4.012,3.3,194,24,5.4,-0.00006,-0.00006,43.8,43.0,24,0,.,.,10.34,0.00,0.00
15min,AgWx,beryljct,423,15MAR2020:22:30:00,42.2,12.96,42.6,42.4,42.7,43.3,42.3,76,78,75,0.714,35.8,36.4,35.3,1.841,3.1,190,13,6.4,-0.00008,-0.00008,43.6,43.0,24,0,.,.,10.34,0.00,0.00
15min,AgWx,beryljct,423,15MAR2020:22:45:00,42.5,12.94,44.3,43.5,43.1,44.0,42.0,77,80,75,0.738,36.4,37.0,35.7,3.047,3.7,199,26,6.9,-0.00006,-0.00006,43.4,43.1,24,0,.,.,10.33,0.00,0.00
15min,AgWx,beryljct,423,15MAR2020:23:00:00,42.7,12.95,43.2,43.0,43.3,44.0,42.9,76,77,75,0.725,36.3,37.0,35.9,3.946,3.3,213,16,6.6,-0.00007,-0.00008,43.3,43.1,24,0,.,.,10.34,0.00,0.00
15min,AgWx,beryljct,423,15MAR2020:23:15:00,42.7,12.94,43.7,43.7,44.0,45.1,43.0,75,77,72,0.733,36.5,37.2,36.1,4.494,5.1,188,9.6,7.3,0.00000,0.00002,43.2,43.1,24,0,.,.,10.34,0.00,0.00
15min,AgWx,beryljct,423,15MAR2020:23:30:00,42.6,12.94,41.2,42.3,43.2,44.2,42.3,76,79,74,0.706,36.2,37.4,35.6,3.968,5.5,201,12,9.1,0.00001,0.00003,43.1,43.1,24,0,.,.,10.34,0.00,0.00
15min,AgWx,bigpiney,439,15MAR2020:00:00:00,34.4,12.78,32.0,31.8,32.0,32.5,31.7,83,84,81,0.507,27.3,27.5,27.2,7.103,6.5,140,8.9,9.1,-0.00002,-0.00001,31.2,31.5,12,0,0,0.0,5.90,0.00,0.00
15min,AgWx,bigpiney,439,15MAR2020:00:15:00,34.2,12.78,32.3,32.4,32.5,33.0,31.7,82,84,80,0.510,27.5,27.7,27.4,2.762,5.1,143,22,7.8,-0.00004,-0.00003,31.2,31.5,12,0,0,0.0,5.90,0.00,0.00
15min,AgWx,bigpiney,439,15MAR2020:00:30:00,34.1,12.78,33.1,32.6,32.2,32.6,31.7,83,84,82,0.512,27.6,27.8,27.3,7.519,4.2,158,34,7.7,-0.00007,-0.00007,31.2,31.4,12,0,0,0.0,5.90,0.00,0.00
15min,AgWx,bigpiney,439,15MAR2020:00:45:00,34.0,12.77,32.9,32.6,32.4,32.7,32.2,83,83,82,0.515,27.7,27.9,27.5,5.941,6.8,156,7.1,8.5,-0.00001,-0.00001,31.2,31.5,12,0,0,0.0,5.90,0.00,0.00
15min,AgWx,bigpiney,439,15MAR2020:01:00:00,33.9,12.77,32.4,32.4,32.4,32.6,32.2,83,84,82,0.522,27.9,28.2,27.7,1.14,3.1,169,21,6.5,-0.00009,-0.00011,31.2,31.5,12,0,0,0.0,5.90,0.00,0.00
15min,AgWx,bigpiney,439,15MAR2020:01:15:00,33.9,12.76,32.9,32.3,32.2,32.4,32.0,84,85,83,0.521,27.9,28.1,27.7,1.754,2.8,351,17,5.4,-0.00011,-0.00012,31.2,31.5,12,0,0,0.0,5.90,0.00,0.00
15min,AgWx,bigpiney,439,15MAR2020:01:30:00,33.9,12.76,33.9,33.5,33.4,33.8,32.4,81,84,80,0.526,28.3,28.4,28.1,3.288,1.1,157,79,3.3,-0.00018,-0.00025,31.2,31.5,12,0,0,0.0,5.90,0.00,0.00
15min,AgWx,bigpiney,439,15MAR2020:01:45:00,34.1,12.75,33.2,33.0,33.4,33.8,32.9,82,83,81,0.528,28.5,28.7,28.3,1.841,0.9,160,61,3.4,-0.00019,-0.00027,31.2,31.5,12,0,0,0.0,5.90,0.00,0.00
15min,AgWx,bigpiney,439,15MAR2020:02:00:00,34.2,12.75,33.2,32.8,32.9,33.1,32.6,84,86,83,0.544,28.7,29.2,28.4,1.82,1.4,103,42,3.0,-0.00017,-0.00022,31.2,31.5,12,0,0,0.0,5.90,0.00,0.00
15min,AgWx,bigpiney,439,15MAR2020:02:15:00,34.3,12.74,33.2,33.1,32.9,33.1,32.6,87,87,86,0.556,29.3,29.7,29.0,0.921,3.1,267,26,6.8,-0.00011,-0.00012,31.2,31.5,12,0,0,0.0,5.90,0.00,0.00
15min,AgWx,bigpiney,439,15MAR2020:02:30:00,34.4,12.74,32.4,32.3,32.6,33.0,32.3,90,92,87,0.566,30.0,30.2,29.6,3.902,3.3,139,27,6.3,-0.00011,-0.00013,31.2,31.5,12,0,1,0.0,5.90,0.00,0.00
15min,AgWx,bigpiney,439,15MAR2020:02:45:00,34.3,12.73,32.2,32.0,32.1,32.3,32.0,92,93,92,0.566,30.1,30.2,30.0,0,2.2,131,4.3,4.0,-0.00014,-0.00018,31.2,31.5,12,0,0,0.0,5.90,0.00,0.00
15min,AgWx,bigpiney,439,15MAR2020:03:00:00,34.1,12.73,32.4,32.0,31.9,32.1,31.7,93,93,92,0.565,30.0,30.2,29.8,1.25,0.7,122,7.0,1.9,-0.00021,-0.00030,31.2,31.5,12,0,0,0.0,5.90,0.00,0.00
15min,AgWx,bigpiney,439,15MAR2020:03:15:00,34.0,12.72,32.3,31.9,32.0,32.3,31.7,92,93,90,0.550,29.8,30.2,29.2,5.02,4.4,112,15,8.2,-0.00009,-0.00010,31.2,31.5,12,0,0,0.0,5.90,0.00,0.00
15min,AgWx,bigpiney,439,15MAR2020:03:30:00,33.8,12.71,30.9,31.0,31.5,31.9,30.9,91,92,90,0.527,29.0,29.5,28.4,7.585,5.4,152,11,7.7,-0.00007,-0.00008,31.2,31.4,12,0,0,0.0,5.90,0.00,0.00
15min,AgWx,bigpiney,439,15MAR2020:03:45:00,33.4,12.7,32.2,31.6,31.1,31.6,30.7,91,92,90,0.553,28.8,29.6,28.3,8,8.3,148,4.8,10.1,-0.00004,-0.00004,31.2,31.5,12,0,0,0.0,5.90,0.00,0.00
15min,AgWx,bigpiney,439,15MAR2020:04:00:00,33.1,12.69,29.9,29.8,30.5,31.5,29.7,92,92,91,0.513,28.3,29.5,27.6,6.84,7.1,166,4.5,7.7,-0.00005,-0.00005,31.2,31.5,12,0,0,0.0,5.90,0.00,0.00
15min,AgWx,bigpiney,439,15MAR2020:04:15:00,32.6,12.69,29.2,29.0,29.4,29.9,29.0,92,92,91,0.492,27.2,27.9,26.6,6.116,6.6,172,3.2,7.9,-0.00006,-0.00006,31.2,31.5,12,0,0,0.0,5.90,0.00,0.00
15min,AgWx,bigpiney,439,15MAR2020:04:30:00,32.1,12.69,30.5,30.1,29.7,30.3,29.0,90,91,89,0.505,27.2,27.5,26.7,7.19,6.8,166,6.7,7.8,-0.00005,-0.00005,31.2,31.5,12,0,0,0.0,5.90,0.00,0.00
15min,AgWx,bigpiney,439,15MAR2020:04:45:00,31.7,12.68,30.5,30.3,30.0,30.3,29.7,89,89,88,0.503,27.1,27.3,26.8,7.497,8.1,165,5.5,9.2,-0.00003,-0.00003,31.2,31.5,12,0,0,0.0,5.90,0.00,0.00
15min,AgWx,bigpiney,439,15MAR2020:05:00:00,31.6,12.67,32.0,32.4,31.3,32.8,30.2,85,88,80,0.495,27.3,27.8,26.8,6.642,8.8,176,8.9,13.3,-0.00000,0.00000,31.2,31.4,12,0,0,0.0,5.90,0.00,0.00
15min,AgWx,bigpiney,439,15MAR2020:05:15:00,31.8,12.66,34.5,34.0,33.3,34.1,31.4,76,81,73,0.484,26.4,27.0,25.9,7.87,9.2,172,4.8,11.3,0.00005,0.00007,31.2,31.5,12,0,1,0.0,5.90,0.00,0.00
15min,AgWx,bigpiney,439,15MAR2020:05:30:00,32.1,12.65,33.4,33.3,34.1,34.6,33.3,72,73,71,0.466,25.9,26.6,25.4,6.401,6.9,178,6.7,10.0,0.00004,0.00006,31.2,31.6,12,0,1,0.0,5.90,0.00,0.00
15min,AgWx,bigpiney,439,15MAR2020:05:45:00,32.2,12.65,32.2,31.2,32.6,33.5,31.2,74,77,73,0.441,25.3,26.3,24.1,7.585,6.9,166,12,9.2,0.00003,0.00004,31.2,31.5,12,0,0,0.0,5.90,0.00,0.00
15min,AgWx,bigpiney,439,15MAR2020:06:00:00,31.9,12.64,31.4,31.3,31.7,33.2,30.8,75,77,72,0.455,24.6,25.8,23.5,8.97,7.4,146,5.4,9.2,0.00003,0.00005,31.2,31.5,12,0,0,0.0,5.90,0.00,0.00
15min,AgWx,bigpiney,439,15MAR2020:06:15:00,31.5,12.63,28.2,28.8,31.1,32.5,28.8,77,80,75,0.428,24.8,26.0,23.3,7.651,7.8,140,6.0,9.3,0.00002,0.00004,31.2,31.5,12,0,0,0.0,5.90,0.00,0.00
15min,AgWx,bigpiney,439,15MAR2020:06:30:00,30.9,12.64,27.4,27.4,28.3,28.8,27.3,83,84,80,0.419,23.7,24.3,22.2,8.35,8.6,148,10,9.7,0.00001,0.00001,31.2,31.5,12,0,0,0.0,5.90,0.00,0.00
15min,AgWx,bigpiney,439,15MAR2020:06:45:00,30.1,12.63,26.6,25.9,26.4,27.3,25.7,84,86,83,0.408,22.3,23.1,21.4,5.787,6.8,168,7.9,8.4,-0.00002,-0.00001,31.2,31.5,12,0,0,0.0,5.90,0.00,0.00
15min,AgWx,bigpiney,439,15MAR2020:07:00:00,29.3,12.62,27.7,27.6,27.5,27.9,25.9,86,88,83,0.433,23.8,24.4,22.2,7.212,7.5,151,4.4,9.1,-0.00002,-0.00001,31.2,31.5,12,0,0,0.0,5.90,0.00,0.00
15min,AgWx,bigpiney,439,15MAR2020:07:15:00,28.8,12.61,28.1,27.3,27.4,27.7,27.0,86,87,85,0.435,23.6,24.1,23.3,5.919,6.3,154,3.9,7.7,-0.00003,-0.00003,31.2,31.5,12,0,0,0.0,5.90,0.00,0.00
15min,AgWx,bigpiney,439,15MAR2020:07:30:00,28.3,12.63,27.2,26.0,26.5,27.9,25.4,86,87,84,0.415,22.8,24.2,21.5,5.064,4.5,167,14,6.0,-0.00006,-0.00006,31.2,31.5,12,2,0,0.0,5.90,0.00,0.00
15min,AgWx,bigpiney,439,15MAR2020:07:45:00,27.9,12.66,28.6,27.4,26.7,27.4,26.1,86,87,84,0.432,22.9,23.6,22.2,6.314,6.1,158,5.1,7.6,-0.00003,-0.00002,31.2,31.5,12,9,0,0.0,5.90,0.00,0.00
15min,AgWx,bigpiney,439,15MAR2020:08:00:00,28.0,12.7,28.3,28.6,28.7,29.2,27.6,84,86,83,0.441,24.4,24.9,23.8,7.826,8.9,144,4.6,12.0,0.00006,0.00018,31.2,31.5,12,17,0,0.0,5.90,0.00,0.00